Flag for U.S.A. Weather past 2 weeks in Peoria, Illinois, U.S.A.

Now
76 °F

Passing clouds.


Feels Like: 77 °F
Forecast: 65 / 87 °F
Wind: 10 mph from Southwest

Location: Greater Peoria Regional Airport

Current Time: Aug 20, 2014 at 3:24:46 PM

Latest Report: Aug 20, 2014 at 2:54 PM


Visibility: 10 mi

Pressure: 29.91 "Hg

Humidity: 74%

Dew point: 67 °F

Location of PeoriaLocation

Historic Weather in Peoria — Graph

°F

Peoria temperature yesterday

Maximum temperature yesterday: 85 °F (at 3:54 PM)
Minimum temperature yesterday: 70 °F (at 3:54 AM)
Average temperature yesterday: 75 °F

Past Weeks' High & Low Weather Summary

 TemperatureHumidityPressure
High85 °F (Aug 19, 3:54 PM)93% (Aug 6, 8:54 AM)30.10 "Hg (Aug 6, 8:54 AM)
Low57 °F (Aug 13, 5:54 AM)42% (Aug 12, 3:54 PM)29.74 "Hg (Aug 19, 5:54 AM)
Average73 °F73%29.96 "Hg
* Reported Aug 5 1:54 PM — Aug 20 1:54 PM, Peoria, Weather by CustomWeather, © 2014

Note: Actual official high and low records may vary slightly from our data, if they occured in-between our weather recording intervals... More about our weather records

Advertising

Peoria weather history for previous 24 hours

 ConditionsComfort  
Time TempWeatherWind HumidityBarometerVisibility
1:54 PM
Aug 20
75 °FScattered clouds.14 mph82%29.93 "Hg10 mi
12:54 PM76 °FSunny.7 mph77%29.92 "Hg10 mi
11:54 AM74 °FSunny.8 mph88%29.93 "Hg10 mi
10:54 AM73 °FLight rain. Partly sunny.3 mph84%29.91 "Hg7 mi
9:54 AM74 °FPartly sunny.10 mph82%29.96 "Hg9 mi
8:54 AM76 °FScattered clouds.No wind80%29.89 "Hg7 mi
7:54 AM71 °FFog.5 mph87%29.87 "Hg3 mi
6:54 AM67 °FClear.No wind87%29.85 "Hg8 mi
5:54 AM66 °FClear.3 mph87%29.86 "Hg10 mi
5:03 AM66 °FFog.No wind90%29.86 "Hg5 mi
4:56 AM67 °FFog.No wind87%29.85 "Hg1 mi
3:54 AM67 °FClear.No wind87%29.82 "Hg10 mi
2:54 AM69 °FClear.No wind87%29.82 "Hg10 mi
1:54 AM70 °FClear.No wind90%29.82 "Hg10 mi
12:54 AM71 °FClear.No wind87%29.83 "Hg10 mi
11:54 PM
Aug 19
73 °FClear.No wind84%29.82 "Hg10 mi
10:54 PM74 °FClear.5 mph85%29.81 "Hg10 mi
9:54 PM75 °FClear.3 mph82%29.80 "Hg10 mi
8:54 PM76 °FClear.5 mph80%29.78 "Hg10 mi
7:54 PM78 °FSunny.5 mph76%29.75 "Hg10 mi
6:54 PM82 °FSunny.8 mph65%29.75 "Hg10 mi
5:54 PM84 °FSunny.10 mph59%29.75 "Hg10 mi
4:54 PM85 °FPassing clouds.10 mph57%29.74 "Hg10 mi
3:54 PM85 °FPassing clouds.12 mph57%29.75 "Hg10 mi
Weather by CustomWeather, © 2014

See weather overviewHow to use our weather pages